Погода в Петровке

Россия / Республика Крым     45°29′47″N   34°17′00″E
темп.,
°C
ветер,
м/с
пор.,
м/с
влажн.,
%
обл.,
%
осадки,
мм/ч
давл.,
гПа
погр.,
м
7 мая, пт
пт700:00+11зюз2371100 0.0 101566
03:00+9з33765 0.0 101530
06:00+9зюз22800 0.0 101633
09:00+15сз116940 0.0 1017511
12:00+20всв015192 0.0 10171291
15:00+22ююз234097 0.0 10151877
18:00+21юз23475 0.0 1014653
21:00+13юз226999 0.0 101517
8 мая, сб
сб800:00+13ююв3370100 0.0 101335
03:00+13ю2260100 0.0 101217
06:00+13ю2261100 0.0 101115
09:00+19в2151100 0.0 1011283
12:00+23ссз323989 0.0 10111326
15:00+21ссз7656100 0.1 10111148
18:00+14ссз91274100 0.1 1013802
21:00+11с61285100 0.8 1015790
9 мая, вс
вс900:00+10ссз5994100 1.8 1016754
03:00+9ссв51090100 6.5 1018864
06:00+8ссз5985100 0.2 1020490
09:00+11ссз810655 0.2 10221205
12:00+14ссз79425 0.0 10231964
15:00+16ссз783758 0.0 10242577
18:00+15с474165 0.0 10252421
21:00+10зсз486510 0.0 1028148
10 мая, пн
пн1000:00+8зсз33707 0.0 102830
03:00+7сз22715 0.0 102814
06:00+7с33805 0.0 102942
09:00+13св57490 0.0 10291563
12:00+15ссв56375 0.0 10282062
15:00+17ссв56355 0.0 10272335
18:00+16ссв474256 0.0 10262280
21:00+10ссз3358100 0.0 102625
11 мая, вт
вт1100:00+9ссз346568 0.0 102544
03:00+8сз3672100 0.0 102394
06:00+11сз496797 0.0 1022328
09:00+12ссз4768100 0.0 1022550
12:00+13ссв4667100 0.0 1021795
15:00+13с367495 0.0 1020718
18:00+12с4790100 0.4 1019489
21:00+11сз22892 0.4 101854